This is the latest recevied weather packets stored in our database for station/object AI9F. If no packets are shown the sender has not sent any weather packets the latest 10 day(s).
| Time | Temp. | Humidity | Pressure | Rain* | Wind** | Luminosity | Snow |
|---|---|---|---|---|---|---|---|
| 1776984879 | 26.67° C | 46% | 1009.8 hPa | 0 mm | - | 71 W/m² | - |
| 1776984575 | 26.67° C | 44% | 1009.8 hPa | 0 mm | - | 187 W/m² | - |
| 1776984271 | 26.67° C | 44% | 1010 hPa | 0 mm | - | 105 W/m² | - |
| 1776983967 | 27.22° C | 42% | 1009.9 hPa | 0 mm | - | 72 W/m² | - |
| 1776983663 | 27.22° C | 43% | 1009.8 hPa | 0 mm | - | 76 W/m² | - |
| 1776983360 | 26.67° C | 43% | 1010 hPa | 0 mm | - | 274 W/m² | - |
| 1776983057 | 27.78° C | 43% | 1009.9 hPa | 0 mm | - | 78 W/m² | - |
| 1776982754 | 28.33° C | 42% | 1010 hPa | 0 mm | - | 281 W/m² | - |
| 1776982451 | 27.78° C | 41% | 1009.9 hPa | 0 mm | - | 311 W/m² | - |
| 1776982150 | 27.78° C | 42% | 1010 hPa | 0 mm | - | 315 W/m² | - |
| 1776981850 | 27.78° C | 40% | 1010 hPa | 0 mm | - | 124 W/m² | - |
| 1776981546 | 27.78° C | 39% | 1010.2 hPa | 0 mm | - | 364 W/m² | - |
| 1776981241 | 27.78° C | 41% | 1010 hPa | 0 mm | - | 373 W/m² | - |
| 1776980937 | 27.78° C | 41% | 1010 hPa | 0 mm | - | 263 W/m² | - |
| 1776980635 | 27.78° C | 41% | 1010 hPa | 0 mm | - | 472 W/m² | - |
| 1776980331 | 27.78° C | 40% | 1010.1 hPa | 0 mm | - | 280 W/m² | - |
| 1776980027 | 27.22° C | 42% | 1010.1 hPa | 0 mm | - | 479 W/m² | - |
| 1776979723 | 27.78° C | 43% | 1010.2 hPa | 0 mm | - | 210 W/m² | - |
| 1776979419 | 28.33° C | 40% | 1010.1 hPa | 0 mm | - | 488 W/m² | - |
| 1776979116 | 28.33° C | 38% | 1010.2 hPa | 0 mm | - | 423 W/m² | - |
| 1776978813 | 28.33° C | 40% | 1010.4 hPa | 0 mm | - | 521 W/m² | - |
| 1776978510 | 28.33° C | 37% | 1010.4 hPa | 0 mm | - | 535 W/m² | - |
| 1776978208 | 28.33° C | 43% | 1010.5 hPa | 0 mm | - | 551 W/m² | - |
| 1776977905 | 28.33° C | 38% | 1010.4 hPa | 0 mm | - | 540 W/m² | - |
| 1776977601 | 28.33° C | 41% | 1010.4 hPa | 0 mm | - | 152 W/m² | - |
* Rain latest hour (hover to see other rain measurements)
** Current wind speed in m/s (hover to see current wind gust speed)